www.pogodaiklimat.ru

Погода и климат >> Архив погоды >> Казахстан >> Опорная


ПОГОДА в Опорной

  • Прогноз погоды в Опорной
  • Монитор погоды в Опорной

АРХИВ ПОГОДЫ в Опорной

Время (UTC), дата Ветер
(напр.,м/с)
 
Видим.   Явления Облачность Т
(С)
Тd
(С)
f
(%)
Тe
(С)
Тes
(С)
Комфортность P
(гПа)
Po
(гПа)
Тmin
(С)
Tmax
(С)
R
(мм)
R24
(мм)
S
(см)
00 13.05 В 5 н/о 4/0
[Ac lent]
+23.0 +1.7 25 +22 +22 комфорт 1014.0
03 13.05 В 5 50 км 6/6 1000 м
[Sc]
+23.3 +1.9 24 +23 +23 комфорт 1014.3
06 13.05 В 3 50 км 6/0
[Ac trans]
+27.5 +8.5 30 +27 +34 жарко 1014.8 +2.2
09 13.05 Ю 4 50 км 9/0
[Ac trans]
+30.5 +8.5 25 +30 +35 жарко 1014.4
12 13.05 З 2 50 км 8/8 600 м
[Cb calv]
+29.7 +10.5 30 +30 +31 жарко 1013.6
15 13.05 Ю 2 50 км 6/0
[Ac trans]
+29.6 +10.7 31 +30 +30 жарко 1013.0 +31.0
18 13.05 Ю 2 н/о ясно +22.0 +7.8 40 +23 +23 комфорт 1014.3 +3.1
21 13.05 ЮЗ 3 2000 м гроза, ливневой дождь 9/9 600 м
[Cb cap]
+19.8 +18.5 92 +23 +23 комфорт 1014.5
00 14.05 Ю 1 н/о 6/6 600 м
[Cb cap]
+20.0 +16.4 80 +24 +24 комфорт 1013.8
03 14.05 ЮЗ 3 2000 м гроза, ливневой дождь 9/9 600 м
[Cb cap]
+19.8 +18.5 92 +23 +23 комфорт 1014.5
06 14.05 штиль 0 50 км 9/9 600 м
[Cb cap]
+18.8 +15.8 83 +20 +22 1015.4 +1.9 5
09 14.05 ЮЗ 5 50 км 6/6 1000 м
[Cb calv Ac trans]
+23.8 +16.4 63 +27 +31 жарко 1013.4
12 14.05 ЮЗ 6 50 км 8/8 600 м
[Cb cap Ac trans]
+25.5 +10.7 39 +26 +27 жарко 1012.5
15 14.05 З 4 50 км 9/8 1000 м
[Sc]
+20.5 +14.5 68 +23 +23 комфорт 1012.8 +25.9
18 14.05 штиль 0 н/о 6/0
[Ac und]
+19.4 +15.0 76 +21 +21 комфорт 1013.2 +2.5 4
21 14.05 З 2 н/о 5/0
[Ac trans]
+18.0 +14.4 79 +19 +19 1013.0
00 15.05 ЮЗ 2 н/о 3/3 1000 м
[Cb cap]
+17.4 +15.7 90 +18 +18 1012.6
03 15.05 ЮЗ 2 50 км 6/0
[Ac trans]
+18.5 +16.2 86 +20 +22 1012.6
06 15.05 З 3 50 км 3/3
[Cu med, cong]
+23.0 +14.6 59 +27 +35 душно 1012.8 +1.7
09 15.05 З 4 50 км 8/8 1000 м
[Cu med, cong]
+25.6 +12.7 45 +27 +30 жарко 1012.0
12 15.05 З 2 50 км в посл. час дождь {ливн. осадки} 8/8 600 м
[Cb cap]
+25.0 +15.1 54 +28 +30 жарко 1012.3
15 15.05 З 1 50 км 4/0
[Ac trans]
+25.3 +13.1 47 +27 +28 жарко 1011.7 +25.9
18 15.05 З 4 н/о ясно +20.6 +14.0 66 +23 +23 комфорт 1013.4 +2.5 0.8
21 15.05 З 2 н/о ясно +17.7 +15.0 84 +18 +18 1012.6
00 16.05 З 1 н/о 5/0
[Ac trans]
+16.5 +15.3 93 +17 +17 1012.4
03 16.05 С 1 50 км 9/0
[Ac trans]
+17.7 +15.9 89 +19 +20 1012.9
06 16.05 СВ 2 50 км {ливн. осадки} 8/3 600 м
[Cb cap Ac trans]
+21.5 +15.1 67 +25 +30 комфорт 1013.3 +1.6
09 16.05 В 4 50 км 8/0
[Ac und]
+25.0 +12.1 45 +27 +32 жарко 1013.4
12 16.05 В 7 50 км 4/4 600 м
[Cu med, cong]
+28.7 +6.8 25 +28 +29 жарко 1012.6
15 16.05 В 4 50 км 4/0
[Ac lent]
+27.0 +9.8 34 +27 +28 жарко 1013.1 +29.1
18 16.05 В 3 н/о 4/0
[Ci fib]
+22.2 +12.1 53 +25 +25 комфорт 1014.3 +2.9 1
21 16.05 ЮВ 3 н/о 4/0
[Ci fib]
+19.6 +11.7 60 +21 +21 комфорт 1014.8
00 17.05 В 1 н/о ясно +17.0 +12.1 73 +18 +18 1014.4
03 17.05 штиль 0 50 км ясно +20.1 +12.9 63 +22 +26 комфорт 1014.5
06 17.05 штиль 0 50 км ясно +26.0 +10.3 37 +27 +45 жарко 1014.9 +1.6
09 17.05 штиль 0 50 км 3/0
[Ci ing]
+29.4 +7.4 25 +28 +51 опасность
солнечного
удара
1013.7
12 17.05 З 2 50 км 3/1 1000 м
[Cu med, cong Ci ing]
+31.4 +5.9 20 +30 +37 жарко 1012.1
15 17.05 З 6 50 км 9/3 1000 м
[Cu med, cong Ci ing]
+29.4 +7.7 26 +29 +29 жарко 1011.7 +31.7
18 17.05 З 5 н/о 9/9 1000 м
[Sc]
+24.1 +12.4 48 +26 +26 жарко 1012.4 +3.1
21 17.05 СЗ 2 н/о 8/0
[Ac trans]
+26.0 +14.2 48 +28 +28 жарко 1011.4
00 18.05 СВ 3 н/о 8/0
[Ac trans]
+18.9 +13.0 69 +20 +20 1011.6
03 18.05 СВ 6 50 км 1/1 1000 м
[Cu med, cong]
+16.6 +11.2 70 +16 +17 1012.9
06 18.05 С 4 50 км 3/0
[Ci ing]
+18.7 +8.9 53 +19 +28 1013.5 +1.6
09 18.05 С 4 50 км 4/0
[Ci ing]
+20.8 +9.0 47 +22 +33 комфорт 1013.4
12 18.05 С 3 50 км 3/0
[Ci ing]
+22.6 +5.8 34 +23 +30 комфорт 1013.1
15 18.05 С 4 50 км 4/0
[Ci ing]
+20.4 +4.6 35 +21 +21 комфорт 1012.0 +22.9
18 18.05 С 3 н/о ясно +18.6 -0.7 27 +19 +19 1012.3 +2.2
21 18.05 С 2 н/о ясно +15.3 +1.7 40 +15 +15 1012.6
00 19.05 С 2 н/о ясно +14.6 -0.4 36 +15 +15 1012.3
03 19.05 В 1 50 км 3/0
[Ci ing]
+18.0 +2.3 35 +19 +22 1011.7
06 19.05 штиль 0 50 км 3/0
[Ci ing]
+23.0 -2.2 19 +22 +39 комфорт 1011.4 +1.4
12 19.05 штиль 0 50 км ясно +26.4 -4.1 13 +24 +36 комфорт 1009.7
18 19.05 СВ 1 н/о 6/0
[Ci fib]
+21.0 +1.5 27 +22 +22 комфорт 1009.6 +2.6

 

Местоположение метеостанции Опорная (Мангистауская область, Казахстан): широта 46.13 долгота 54.58 высота над уровнем моря -4 м.

В архиве по умолчанию представлена погода в Опорной за последнюю неделю. Архивные данные за месяц целиком и за предыдущие месяцы, начиная с января 2011 года, Вы можете получить, выбрав интересующий диапазон дат из раскрывающегося списка и нажав кнопку "Ввод!".


*Определитесь, кто Вы:
робот инопланетянин человек

Внимание! Время в таблицах - всемирное. Для получения местного времени необходимо прибавить поправку, которая равна 4 ч.

Смотрите также архив погоды в соседних городах и на ближайших метеорологических станциях:

Погода в Кульсары (Атырауская область, Казахстан) (90 км)
Погода в Бейнеу (Мангистауская область, Казахстан) (102 км)
Погода в Саме (Мангистауская область, Казахстан) (144 км)
Погода в Макате (Атырауская область, Казахстан) (194 км)
Погода в Каракалпакии (Каракалпакстан, Узбекистан) (197 км)
Погода в Сай-Утесе (Мангистауская область, Казахстан) (218 км)
Погода в Атырау (Атырауская область, Казахстан) (231 км)
Погода в Сагизе (Атырауская область, Казахстан) (232 км)
Погода в Кызане (Мангистауская область, Казахстан) (256 км)
Погода в Махамбете (Атырауская область, Казахстан) (285 км)

Пояснения к столбцам:

Ветер - указаны скорость ветра в м/с - средняя за 10 мин, порывы в срок и между сроками (в фигурных скобках) и направление, откуда дует ветер: С - северный, СВ - северо-восточный, В - восточный, ЮВ - юго-восточный, Ю - южный, ЮЗ - юго-западный, З - западный, СЗ - северо-западный.
Видимость - горизонтальная дальность видимости в метрах или километрах. При видимости от 1 до 10 км при отсутствии осадков обычно наблюдается дымка, при ухудшении видимости до 1 км и менее - туман. В сухую погоду видимость может ухудшаться дымом, пылью или мглою.
Явления - указаны атмосферные явления, наблюдавшиеся в срок или в последний час перед сроком; фигурными скобками обозначены явления, наблюдавшиеся между сроками (за 1-3 часа до срока); квадратными скобками обозначены град или гололедные отложения с указанием их диаметра в мм.
Облачность - указаны через наклонную черту общая и нижняя облачность в баллах и высота нижней границы облаков в метрах; квадратными скобками обозначены формы облаков: Ci - перистые, Cs - перисто-слоистые, Cc - перисто-кучевые, Ac - высококучевые, As - высокослоистые, Sc - слоисто-кучевые, Ns - слоисто-дождевые, Cu - кучевые, Cb - кучево-дождевые. Подробнее классификацию облаков см. в Атласе облаков (PDF).
T - Температура воздуха - температура, измеренная на высоте 2 м над землей.
Td - Температура точки росы - температура, при понижении до которой содержащийся в воздухе водяной пар достигнет насыщения.
f - Относительная влажность воздуха - влажноcть воздуха, измеренная на высоте 2 м над землей.
Te - Эффективная температура - температура, которую ощущает одетый по сезону человек в тени. Характеристика душности погоды. При расчете учитывается влияние влажности воздуха и скорости ветра на теплоощущения человека.
Tes - Эффективная температура на солнце - температура, которую ощущает человек, с поправкой на солнечный нагрев. Характеристика знойности погоды. Зависит от высоты солнца над горизонтом, облачности и скорости ветра. Ночью, в пасмурную погоду, а также при ветре 12 м/с и более поправка равна нулю.
P - Атмосферное давление - приведенное к уровню моря атмосферное давление.
Po - Атмосферное давление - измеренное на уровне метеостанции атмосферное давление.
Tmin - Минимальная температура - минимум температуры воздуха на высоте 2 м над землей.
Tmax - Максимальная температура - максимум температуры воздуха на высоте 2 м над землей.
R - Количество осадков - Количество выпавших осадков за период времени, мм. При наведении курсора мыши на число - период времени, за который выпало указанное количество осадков.
R24 - Количество осадков - Количество выпавших осадков за 24 часа, мм.
S - Снежный покров - Высота снежного покрова, см. При наведении курсора мыши на число - состояние снежного покрова и степень покрытия местности в баллах.